SCP
0 0 0 0 0 0 0 0 0 0 0 0 0 0 0 0 0 0 0 0 0 0 0 0 0 1 2 2 3 3 2 2 2 2 2 2 2 1 1 1 1 0 0 0
0 0 0 0 0 0 0 0 0 0 0 0 0 0 0 0 0 0 0 0 0 0 0 0 0 0 1 2 2 2 2 2 2 2 3 2 2 2 1 1 1 0 0 0
0 0 0 0 0 0 0 0 0 0 0 0 0 0 0 0 0 0 0 0 0 0 0 0 0 0 0 0 1 1 2 2 2 2 3 2 2 2 2 1 1 0 0 0
0 0 0 0 0 0 0 0 0 0 0 0 0 0 0 0 0 0 0 0 0 0 0 0 0 0 0 0 0 0 1 1 1 2 2 2 2 2 2 1 1 0 0 0
0 0 0 0 0 0 0 0 0 0 0 0 0 0 0 0 0 0 0 0 0 0 0 0 0 0 0 0 0 0 0 0 1 1 1 1 2 2 1 1 1 0 0 0
0 0 0 0 0 0 0 0 0 0 0 0 0 0 0 0 0 0 0 0 0 0 0 0 0 0 0 0 0 0 0 0 0 0 1 1 1 1 1 1 1 1 0 0
0 0 0 0 0 0 0 0 0 0 0 0 0 0 0 0 0 0 0 0 0 0 0 0 0 0 0 0 0 0 0 0 0 0 0 0 0 1 1 1 1 1 1 0
0 0 0 0 0 0 0 0 0 0 0 0 0 0 0 0 0 0 0 0 0 0 0 0 0 0 0 0 0 0 0 0 0 0 0 0 0 0 0 1 1 1 1 1
0 0 0 0 0 0 0 0 0 0 0 0 0 0 0 0 0 0 0 0 0 0 0 0 0 0 0 0 0 0 0 0 0 0 0 0 0 0 0 0 1 1 1 1
0 0 0 0 0 0 0 0 0 0 0 0 0 0 0 0 0 0 0 0 0 0 0 0 0 0 0 0 0 0 0 0 0 0 0 0 0 0 0 0 1 1 1 1
0 0 0 0 0 0 0 0 0 0 0 0 0 0 0 0 0 0 0 0 0 0 0 0 0 0 0 0 0 0 0 0 0 0 0 0 0 0 0 0 0 0 1 1
0 0 0 0 0 0 0 0 0 0 0 0 0 0 0 0 0 0 0 0 0 0 0 0 0 0 0 0 0 0 0 0 0 0 0 0 0 0 0 0 0 0 0 0
0 0 0 0 0 0 0 0 0 0 0 0 0 0 0 0 0 0 0 0 0 0 0 0 0 0 0 0 0 0 0 0 0 0 0 0 0 0 0 0 0 0 0 0
0 0 0 0 0 0 0 0 0 0 0 0 0 0 0 0 0 0 0 0 0 0 0 0 0 0 0 0 0 0 0 0 0 0 0 0 0 0 0 0 0 0 0 0
0 0 0 0 0 0 0 0 0 0 0 0 0 0 0 0 0 0 0 0 0 0 0 0 0 0 0 0 0 0 0 0 0 0 0 0 0 0 0 0 0 0 0 0
0 0 0 0 0 0 0 0 0 0 0 0 0 0 0 0 0 0 0 0 0 0 0 0 0 0 0 0 0 0 0 0 0 0 0 0 0 0 0 0 0 0 0 0
0 0 0 0 0 0 0 0 0 0 0 0 0 0 0 0 0 0 0 0 0 0 0 0 0 0 0 0 0 0 0 0 0 0 0 0 0 0 0 0 0 0 0 0
0 0 0 0 0 0 0 0 0 0 0 0 0 0 0 0 0 0 0 0 0 0 0 0 0 0 0 0 0 0 0 0 0 0 0 0 0 0 0 0 0 0 0 0
0 0 0 0 0 0 0 0 0 0 0 0 0 0 0 0 0 0 0 0 0 0 0 0 0 0 0 0 0 0 0 0 0 0 0 0 0 0 0 0 0 0 0 0
0 0 0 0 0 0 0 0 0 0 0 0 0 0 0 0 0 0 0 0 0 0 0 0 0 0 0 0 0 0 0 0 0 0 0 0 0 0 0 0 0 0 0 0
0 0 0 0 0 0 0 0 0 0 0 0 0 0 0 0 0 0 0 0 0 0 0 0 0 0 0 0 0 0 0 0 0 0 0 0 0 0 0 0 0 0 0 0
0 0 0 0 0 0 0 0 0 0 0 0 0 0 0 0 0 0 0 0 0 0 0 0 0 0 0 0 0 0 0 0 0 0 0 0 0 0 0 0 0 0 0 0
0 0 0 0 0 0 0 0 0 0 0 0 0 0 0 0 0 0 0 0 0 0 0 0 0 0 0 0 0 0 0 0 0 0 0 0 0 0 0 0 0 0 0 0
0 0 0 0 0 0 0 0 0 0 0 0 0 0 0 0 0 0 0 0 0 0 0 0 0 0 0 0 0 0 0 0 0 0 0 0 0 0 0 0 0 0 0 0
0 0 0 0 0 0 0 0 0 0 0 0 0 0 0 0 0 0 0 0 0 0 0 0 0 0 0 0 0 0 0 0 0 0 0 0 0 0 0 0 0 0 0 0
0 0 0 0 0 0 0 0 0 0 0 0 0 0 0 0 0 0 0 0 0 0 0 0 0 0 0 0 0 0 0 0 0 0 0 0 0 0 0 0 0 0 0 0
0 0 0 0 0 0 0 0 0 0 0 0 0 0 0 0 0 0 0 0 0 0 0 0 0 0 0 0 0 0 0 0 0 0 0 0 0 0 0 0 0 0 0 0
Wind_Speed
5 5 4 4 5 4 3 4 5 5 5 7 9 9 8 7 7 6 6 6 6 5 5 4 4 3 3 3 3 2 1 1 1 1 1 1 2 2 2 3 3 4 4 4
3 3 4 5 5 4 3 4 5 6 6 7 9 8 7 7 6 6 7 6 6 6 6 5 4 4 4 4 3 2 2 2 2 1 1 0 1 2 2 2 2 3 4 4
3 3 4 4 3 3 2 3 3 5 6 7 8 9 7 7 6 7 7 6 6 6 6 6 5 4 4 3 3 2 2 2 2 1 1 1 1 1 2 2 2 3 3 3
3 2 4 1 2 2 4 3 3 4 6 7 8 9 6 5 6 7 7 7 7 6 6 6 5 4 3 3 2 2 2 2 2 1 1 1 1 1 1 1 2 2 3 3
2 3 5 1 1 2 3 4 2 5 8 8 9 7 3 5 7 7 7 7 7 7 6 5 5 4 3 3 3 2 2 2 2 2 1 1 1 1 1 1 1 1 2 2
2 4 4 1 3 3 3 4 2 4 6 7 7 5 4 7 9 9 8 7 7 7 6 5 5 4 2 2 3 3 3 3 3 2 1 1 1 1 1 1 1 1 1 1
4 5 4 2 3 1 3 3 4 5 6 6 5 6 8 10 9 9 8 8 7 7 6 6 5 4 3 3 3 4 4 3 2 2 1 1 1 1 1 1 1 1 1 1
4 5 4 2 1 2 3 3 4 5 6 7 8 8 9 9 9 9 8 8 7 6 6 6 5 4 3 3 4 3 3 2 2 2 1 1 0 0 0 1 1 1 1 1
5 4 1 2 3 2 3 4 5 5 6 7 8 8 9 9 8 8 8 7 7 6 6 5 5 4 4 4 4 3 2 2 2 2 1 1 0 1 1 1 1 1 1 1
5 6 5 5 5 4 4 6 6 6 6 6 7 8 8 8 8 8 7 6 6 6 5 6 6 5 5 4 3 2 2 2 2 1 1 1 1 0 1 1 2 2 2 1
6 5 5 5 5 6 6 6 7 7 6 7 7 8 8 8 8 7 7 6 5 5 5 6 6 6 5 4 3 2 2 2 1 1 1 1 1 1 1 1 1 2 2 2
5 4 4 4 4 4 5 6 6 7 7 6 6 8 8 7 7 6 6 6 5 5 5 6 5 5 5 4 3 2 1 1 1 1 0 0 1 2 4 2 2 1 2 2
5 3 5 6 5 4 5 6 6 6 7 7 7 7 7 7 6 6 6 5 5 5 5 5 5 5 5 4 3 2 2 1 1 1 0 0 0 0 1 2 2 1 0 1
6 4 5 5 5 5 5 6 5 6 6 6 6 6 6 6 6 6 6 6 5 5 5 5 4 5 5 4 3 2 2 2 1 1 1 0 0 0 1 1 0 1 1 1
6 6 6 5 5 4 4 4 5 5 6 6 5 5 5 6 6 6 6 5 4 4 4 4 4 5 5 3 2 2 2 1 1 1 1 1 0 0 0 0 0 0 1 1
5 5 5 5 6 5 5 5 5 6 6 6 5 5 5 5 5 5 5 4 3 4 4 4 4 5 4 3 2 2 1 2 1 1 1 0 0 0 0 0 0 0 1 1
4 5 5 6 6 6 6 6 6 6 6 6 6 6 5 5 4 4 4 4 3 4 4 4 4 4 3 3 2 1 1 1 2 1 0 0 0 0 0 0 1 1 1 1
7 7 6 6 6 6 6 6 5 6 5 6 5 5 4 4 4 4 4 4 3 4 4 4 4 3 3 2 2 1 1 1 1 1 1 1 1 1 1 0 1 1 1 1
6 6 6 6 6 6 5 5 5 5 5 4 4 4 4 4 4 4 4 3 3 4 5 4 4 3 3 3 2 1 1 1 1 1 1 1 1 1 1 1 1 1 1 1
5 5 5 5 5 5 5 5 4 4 4 3 3 3 3 3 3 3 3 3 3 3 4 4 3 3 3 2 2 1 1 0 0 1 1 1 1 1 1 1 1 2 1 1
4 4 5 5 4 4 4 4 3 4 3 3 3 3 4 3 3 2 2 3 3 3 3 4 3 2 2 2 2 1 1 1 0 0 0 1 1 1 1 1 2 2 2 2
4 4 4 4 4 4 3 3 3 3 3 3 3 3 3 3 3 2 2 3 3 4 3 2 2 3 3 3 1 1 1 1 1 1 1 1 1 1 1 1 1 2 2 2
3 3 4 4 4 4 3 2 3 3 3 3 3 3 3 3 2 2 3 2 2 4 3 2 3 4 4 2 1 1 1 1 1 1 1 1 1 1 1 1 1 2 2 2
3 3 3 3 2 2 3 3 2 2 3 3 3 3 3 2 2 2 3 4 5 4 3 3 4 4 4 2 1 1 1 1 1 1 1 1 1 1 1 1 1 2 2 2
3 2 2 2 2 2 3 3 2 2 2 2 2 2 2 2 2 2 2 3 4 4 3 3 4 4 3 2 1 1 1 1 1 1 1 1 1 1 1 2 2 2 2 2
2 2 2 3 3 2 2 2 2 2 2 2 2 2 2 1 2 2 2 2 3 4 3 2 3 3 2 2 2 2 2 2 2 2 2 2 2 2 2 2 3 2 3 3
2 2 2 2 2 2 2 2 2 2 2 2 2 2 1 1 1 1 2 2 2 2 2 2 2 2 2 2 2 2 2 2 2 2 2 2 2 2 2 3 3 3 3 3
Wind_Direction
276 286 279 290 304 301 265 260 263 279 287 312 326 328 332 339 347 353 0 3 3 359 356 356 353 350 343 343 348 344 341 345 322 286 224 222 215 205 201 200 202 199 197 198
272 276 282 290 308 293 273 270 265 282 288 315 320 322 328 338 342 347 350 351 351 351 349 349 344 338 338 342 342 341 337 331 335 331 329 254 233 202 195 193 190 189 195 196
273 318 287 266 285 271 262 285 263 265 289 313 318 317 319 325 332 334 336 340 341 340 338 336 330 324 323 327 331 335 338 335 336 331 312 283 248 209 196 197 188 187 184 188
288 299 245 37 41 290 260 273 265 286 305 311 306 301 303 320 329 328 328 331 330 329 329 330 328 323 324 330 336 335 336 338 333 328 319 297 255 233 225 200 190 189 190 191
257 267 270 273 341 311 266 276 309 302 306 315 318 301 295 344 334 321 318 319 318 319 319 323 326 324 327 336 341 339 335 333 326 321 307 293 269 236 223 202 193 187 187 182
226 256 257 20 6 326 243 255 353 318 307 315 324 303 318 338 326 318 318 319 321 321 320 324 328 330 330 330 332 326 320 316 314 310 289 274 271 265 231 198 186 166 169 179
234 248 264 4 332 248 227 300 336 305 299 303 294 288 307 315 315 316 317 321 324 322 323 324 327 330 319 319 317 315 313 312 319 318 298 283 281 275 231 177 164 160 154 178
213 230 246 75 144 220 285 333 307 301 299 296 292 296 303 309 314 319 322 324 325 321 320 325 331 326 312 309 312 316 316 319 326 328 326 321 258 194 200 186 173 180 169 191
226 241 13 179 216 259 299 290 296 297 299 297 295 298 304 308 312 315 317 318 320 317 318 328 332 328 312 310 315 319 324 325 332 346 359 16 149 160 172 204 196 196 197 195
254 256 265 255 256 278 282 283 292 295 296 295 293 299 304 306 309 312 312 313 316 319 322 324 329 328 319 315 315 320 328 331 337 359 18 29 14 234 198 205 207 202 202 197
253 273 291 257 256 271 280 283 289 294 293 290 292 297 301 302 305 309 311 312 314 313 313 316 323 327 327 325 325 324 328 330 344 7 21 33 27 10 318 300 263 231 222 212
241 242 244 270 275 276 278 281 284 290 294 293 290 292 298 299 301 304 306 310 314 314 312 315 321 326 329 330 331 324 328 334 338 346 13 29 53 35 31 20 19 344 296 265
252 271 266 278 284 276 281 287 290 287 287 292 293 291 293 296 299 302 305 308 309 308 309 313 318 325 330 332 334 328 317 315 320 310 282 255 229 160 41 41 49 50 10 267
247 259 267 270 278 283 282 288 294 292 290 291 293 294 294 295 299 303 304 305 307 309 311 314 319 324 328 331 335 334 326 323 317 306 292 269 243 236 229 218 285 359 34 94
244 244 257 277 283 283 285 290 292 292 298 300 300 299 299 299 301 303 305 307 309 313 317 321 324 326 329 333 335 335 329 319 323 324 315 303 284 251 212 231 249 295 350 34
259 252 255 264 271 281 284 282 283 288 294 296 298 298 298 295 296 302 309 315 315 317 320 323 323 323 329 335 337 338 341 340 322 319 324 315 285 240 215 210 238 269 301 317
242 250 250 258 265 272 272 270 272 279 286 288 290 294 298 301 303 310 317 322 318 313 316 317 316 321 331 334 333 333 336 343 345 340 356 326 310 286 266 254 272 288 304 317
239 246 246 250 256 263 270 272 273 276 278 283 290 293 293 293 295 303 311 319 327 330 327 321 321 328 334 337 332 326 327 330 337 353 9 15 6 349 330 296 282 287 306 326
247 252 253 254 256 258 263 268 271 273 277 280 282 285 288 288 290 299 310 319 323 321 326 333 338 337 336 340 335 321 326 341 354 2 7 25 12 4 350 334 316 310 311 315
253 256 257 259 259 256 260 268 272 273 274 274 277 286 293 298 301 303 309 308 305 308 316 326 330 332 334 338 342 334 337 341 346 351 354 351 354 349 343 338 334 328 320 315
259 260 260 261 263 263 264 266 266 271 277 271 267 274 284 296 303 300 297 302 316 321 317 323 329 333 334 338 338 330 330 327 321 316 327 333 337 338 336 334 334 334 331 327
260 261 263 263 266 272 273 267 264 268 274 275 275 280 287 293 298 291 282 285 306 321 322 325 329 334 335 335 335 340 339 338 331 317 302 295 298 308 314 319 323 328 325 326
256 258 260 260 260 268 278 272 265 262 265 269 272 273 274 282 289 290 297 307 309 319 319 321 327 330 332 333 335 336 331 321 313 305 296 293 291 290 292 299 305 308 310 314
254 254 258 266 265 261 272 280 275 268 270 271 270 271 273 278 282 276 284 307 316 317 314 319 324 327 330 331 326 319 312 303 297 292 290 290 291 290 288 289 291 295 298 303
255 256 253 248 246 256 267 281 282 276 275 275 282 281 271 265 272 292 302 304 310 312 310 319 325 326 324 316 311 304 297 288 285 280 274 272 274 277 280 282 285 288 290 290
250 253 254 249 253 265 266 261 264 271 272 279 287 285 283 281 283 291 299 305 308 310 310 312 315 316 308 302 297 294 291 293 293 287 279 272 268 269 274 279 283 282 284 287
250 257 263 268 271 267 261 254 255 259 258 262 276 283 287 291 293 298 301 305 308 307 305 306 307 304 298 294 291 289 287 286 285 283 280 274 271 268 270 272 276 279 280 281